Location: Unspecified
(0.0000°N, 0.0000°E)
Time: 12:14:34
(UTC+00:00)

Hubble Space Telescope - Pass Details

Date: 10 December 2019
Orbit: 536 x 540 km, 28.5° (Epoch: 10 December)

Event Time Altitude Azimuth Distance (km) Brightness Sun altitude
Exits shadow 04:14:24 56° 19° (NNE) 635 1.0 -22.5°
Drops below altitude 10° 04:17:53 10° 53° (NE) 1,782 3.7 -21.7°
Sets 04:20:09 0° 55° (NE) 2,671 4.7 -21.2°
